www.pogodaiklimat.ru

Погода и климат >> Архив погоды >> Россия >> Якутия >> Витим


АРХИВ ПОГОДЫ в Витиме

Время (UTC), дата Ветер
(напр.,м/с)
 
Видим.   Явления Облачность Т
(С)
Тd
(С)
f
(%)
Тe
(С)
Тes
(С)
Комфортность P
(гПа)
Po
(гПа)
Тmin
(С)
Tmax
(С)
R
(мм)
R24
(мм)
S
(см)
00 17.01 штиль 0 20 км слаб. снег 10/0
[Ac lent Cs]
-28.3 -30.7 80 -28 -28 1022.1 995.5 -32.3 0.8 57
03 17.01 штиль 0 10 км слаб. снег 10/0
[As op]
-27.2 -29.6 80 -27 -27 1023.6 997.1
06 17.01 штиль 0 20 км слаб. снег 10/5 1000 м
[Sc Cs]
-24.0 -26.5 80 -24 -24 1023.8 997.5
09 17.01 штиль 0 20 км {снег} 10/5 600 м
[Sc Cs]
-24.7 -27.2 80 -25 -25 1024.2 997.8
12 17.01 ЮЗ 2 20 км {снег} 10/3 600 м
[Sc Cs]
-23.2 -25.7 80 -30 -30 1023.7 997.5 -23.2 0.3
15 17.01 Ю 2 20 км слаб. снег 10/0
[Ac lent Cs]
-18.4 -21.0 80 -24 -24 1022.5 997.0
18 17.01 Ю 1 20 км слаб. снег 10/0
[Ac lent Cs]
-16.3 -18.9 80 -19 -19 1022.1 996.8
21 17.01 ЮЗ 2 20 км слаб. снег 10/0
[Ac lent Cs]
-13.9 -16.6 80 -19 -19 1022.0 996.9
00 18.01 Ю 2 20 км слаб. снег 10/0
[Ac lent Cs]
-14.2 -16.9 80 -19 -19 1022.4 997.3 -23.2 1 57
03 18.01 ЮЗ 2 20 км слаб. снег 9/0
[Ac lent Cs]
-13.6 -15.6 85 -18 -18 1024.2 999.0
06 18.01 З 3 10 км слаб. ливневой снег 10/4 600 м
[Cb cap Ac lent Cs]
-13.7 -17.2 75 -20 -20 1025.9 1000.6
09 18.01 ЮЗ 2 20 км слаб. ливневой снег 10/3 600 м
[Cb cap Ac lent Cs]
-15.1 -17.8 80 -20 -20 1027.2 1001.8
12 18.01 ЮЗ 3 10 км слаб. снег 10/4 600 м
[Sc Cs]
-15.2 -17.9 80 -22 -22 1029.1 1003.6 -13.5 1
15 18.01 ЮЗ 3 20 км {снег} 10/4 600 м
[Sc Cs]
-16.6 -19.2 80 -24 -24 1029.9 1004.2
18 18.01 ЮЗ 3 20 км {снег} 10/4 600 м
[Sc Cs]
-17.4 -20.0 80 -24 -24 1029.4 1003.7
21 18.01 Ю 4 10 км слаб. снег 10/5 600 м
[Sc Cs]
-17.0 -19.6 80 -25 -25 1028.4 1002.7
00 19.01 ЮЗ 4 4000 м слаб. снег 10/5 600 м
[Sc Cs]
-16.1 -18.0 85 -24 -24 1027.1 1001.6 -18.0 1 58
03 19.01 Ю 5 4000 м слаб. ливневой снег 10/6 600 м
[Cb cap Cs]
-14.6 -16.6 85 -23 -23 1024.9 999.6
06 19.01 Ю 4 10 км слаб. ливневой снег 10/5 600 м
[Cb cap Cs]
-12.5 -14.5 85 -20 -20 1022.8 997.7
09 19.01 Ю 5 4000 м слаб. ливневой снег 10/6 600 м
[Cb cap Cs]
-11.2 -13.2 85 -19 -19 1021.0 996.2
12 19.01 н/о -10.2
15 19.01 ЮЗ 4 20 км {ливн. осадки} 9/3 600 м
[Cb cap Ac lent]
-9.7 -12.3 81 -17 -17 1017.5 992.8
18 19.01 ЮЗ 5 20 км {ливн. осадки} 9/3 600 м
[Cb cap Ac trans]
-9.7 -12.3 81 -17 -17 1015.0 990.4
21 19.01 ЮЗ 5 20 км 9/3 1000 м
[Sc Ac trans Ci fib]
-9.9 -13.0 78 -18 -18 1011.9 987.4
00 20.01 ЮЗ 4 20 км слаб. ливневой снег 10/3 600 м
[Cb cap Cs]
-9.3 -13.3 73 -16 -16 1009.1 984.7 -12.1 0.4 63
03 20.01 ЮЗ 3 4000 м слаб. ливневой снег 10/4 600 м
[Cb cap Ac lent Cs]
-9.5 -11.6 85 -15 -15 1009.0 984.6
06 20.01 ЮЗ 4 4000 м слаб. ливневой снег 10/5 600 м
[Cb cap Ac lent Cs]
-7.4 -10.9 76 -14 -14 1009.5 985.3
09 20.01 ЮЗ 3 4000 м слаб. ливневой снег 10/4 600 м
[Cb cap Ac lent Cs]
-7.4 -10.9 76 -13 -13 1012.1 987.8
12 20.01 Ю 3 10 км слаб. ливневой снег 10/4 600 м
[Cb cap Ac lent Cs]
-9.0 -11.5 82 -15 -15 1013.4 988.9 -7.3 3
15 20.01 ЮЗ 3 20 км слаб. ливневой снег 10/4 600 м
[Cb cap Ac lent Cs]
-13.1 -15.1 85 -19 -19 1013.2 988.3
18 20.01 штиль 0 10 км слаб. ливневой снег 10/5 600 м
[Cb cap Ac lent Cs]
-12.8 -14.8 85 -13 -13 1010.0 985.2
21 20.01 штиль 0 4000 м слаб. ливневой снег 10/6 600 м
[Cb cap Ac lent Cs]
-12.3 -14.3 85 -12 -12 1005.4 980.8
00 21.01 штиль 0 4000 м слаб. ливневой снег 10/5 600 м
[Cb cap Ac lent Cs]
-11.0 -12.3 90 -11 -11 1004.0 979.5 -13.6 3 69
03 21.01 З 3 4000 м слаб. ливневой снег 10/8 600 м
[Cb cap Ac As]
-8.1 -9.5 90 -14 -14 1004.2 980.0
06 21.01 СЗ 4 4000 м слаб. ливневой снег 10/8 600 м
[Cb cap Cs]
-7.9 -11.0 78 -15 -15 1007.1 982.8
09 21.01 СЗ 3 10 км слаб. ливневой снег 10/4 600 м
[Cb cap Ac lent Cs]
-10.1 -12.9 80 -16 -16 1011.2 986.7
12 21.01 СЗ 2 20 км {ливн. осадки} 9/3 600 м
[Cb cap Ac lent Cs]
-11.6 -15.1 75 -16 -16 1014.9 990.2 -7.2 2
15 21.01 З 1 20 км 10/4 600 м
[Cb cap Ac lent Cs]
-12.8 -15.5 80 -15 -15 1017.1 992.2
18 21.01 ЮЗ 1 20 км слаб. ливневой снег 10/5 600 м
[Cb cap Ac lent Cs]
-13.0 -15.7 80 -15 -15 1018.6 993.6
21 21.01 ЮЗ 2 20 км {ливн. осадки} 10/3 600 м
[Cb cap Ac lent Cs]
-16.3 -18.9 80 -22 -22 1020.4 995.1
00 22.01 штиль 0 20 км {ливн. осадки} 6/0
[Ac lent Cs]
-22.6 -24.4 85 -23 -23 1023.4 997.4 -22.8 0.3 73
03 22.01 штиль 0 20 км 8/0
[Ac lent Cs]
-24.3 -26.1 85 -24 -24 1026.0 999.7 -25.7
06 22.01 штиль 0 20 км 6/0
[Ac lent Ci fib]
-19.5 -22.1 80 -20 -19 1027.1 1001.3
09 22.01 штиль 0 20 км 4/0
[Ci fib]
-21.8 -24.3 80 -22 -22 1029.2 1003.0
12 22.01 штиль 0 20 км 3/0
[Ci fib]
-28.2 -30.0 84 -28 -28 1031.7 1004.8 -19.4
15 22.01 штиль 0 20 км 3/0
[Ci fib]
-30.7 -32.4 85 -31 -31 опасность
обморожения
1032.3 1005.1
18 22.01 штиль 0 20 км 3/0
[Ci fib]
-31.8 -33.5 85 -32 -32 опасность
обморожения
1032.4 1005.1
21 22.01 штиль 0 20 км 3/0
[Ci fib]
-32.4 -34.8 79 -32 -32 опасность
обморожения
1032.1 1004.8
00 23.01 штиль 0 20 км 10/0
[Cs]
-32.4 -34.8 79 -32 -32 опасность
обморожения
1032.1 1004.8 -33.1 71
03 23.01 штиль 0 20 км 10/0
[Ac lent Cs]
-30.2 -32.6 79 -30 -30 1032.6 1005.5
06 23.01 штиль 0 20 км слаб. снег 10/0
[Ac lent Cs]
-26.7 -28.5 85 -27 -26 1032.7 1006.0
09 23.01 штиль 0 20 км слаб. снег 10/0
[Ac lent Cs]
-26.5 -29.0 79 -27 -27 1034.5 1007.7
12 23.01 штиль 0 20 км слаб. снег 10/0
[Ac lent Cs]
-28.1 -30.5 80 -28 -28 1036.8 1009.8 -26.2 0.8
15 23.01 штиль 0 20 км слаб. снег 9/0
[Ac lent Cs]
-27.1 -29.5 80 -27 -27 1037.4 1010.5
18 23.01 штиль 0 20 км {снег} 9/0
[Ac lent Cs]
-25.9 -28.4 79 -26 -26 1038.1 1011.3
21 23.01 штиль 0 20 км 10/0
[Ac lent Cs]
-23.0 -24.9 84 -23 -23 1037.8 1011.4

 

Местоположение метеостанции Витим (Якутия, Россия): широта 59.45 долгота 112.50 высота над уровнем моря 190 м.

В архиве по умолчанию представлена погода в Витиме за последнюю неделю. Архивные данные за месяц целиком и за предыдущие месяцы, начиная с января 2011 года, Вы можете получить, выбрав интересующий диапазон дат из раскрывающегося списка и нажав кнопку "Ввод!".


*Определитесь, кто Вы:
робот инопланетянин человек

Внимание! Время в таблицах - всемирное. Для получения местного времени необходимо прибавить поправку, которая равна 9 ч.

Смотрите также архив погоды в соседних городах и на ближайших метеорологических станциях:

Погода в Комаке (Якутия, Россия) (102 км)
Погода в Маме (Иркутская область, Россия) (127 км)
Погода в Ленске (Якутия, Россия) (190 км)
Погода в Мамакане (Иркутская область, Россия) (202 км)
Погода в Перевозе (Иркутская область, Россия) (255 км)
Погода в Преображенке (Иркутская область, Россия) (261 км)
Погода в Дорожном (Якутия, Россия) (267 км)
Погода в Маче (Якутия, Россия) (291 км)
Погода в Ербогачене (Иркутская область, Россия) (320 км)
Погода в Киренске (Иркутская область, Россия) (321 км)

Пояснения к столбцам:

Ветер - указаны скорость ветра в м/с - средняя за 10 мин, порывы в срок и между сроками (в фигурных скобках) и направление, откуда дует ветер: С - северный, СВ - северо-восточный, В - восточный, ЮВ - юго-восточный, Ю - южный, ЮЗ - юго-западный, З - западный, СЗ - северо-западный.
Видимость - горизонтальная дальность видимости в метрах или километрах. При видимости от 1 до 10 км при отсутствии осадков обычно наблюдается дымка, при ухудшении видимости до 1 км и менее - туман. В сухую погоду видимость может ухудшаться дымом, пылью или мглою.
Явления - указаны атмосферные явления, наблюдавшиеся в срок или в последний час перед сроком; фигурными скобками обозначены явления, наблюдавшиеся между сроками (за 1-3 часа до срока); квадратными скобками обозначены град или гололедные отложения с указанием их диаметра в мм.
Облачность - указаны через наклонную черту общая и нижняя облачность в баллах и высота нижней границы облаков в метрах; квадратными скобками обозначены формы облаков: Ci - перистые, Cs - перисто-слоистые, Cc - перисто-кучевые, Ac - высококучевые, As - высокослоистые, Sc - слоисто-кучевые, Ns - слоисто-дождевые, Cu - кучевые, Cb - кучево-дождевые. Подробнее классификацию облаков см. в Атласе облаков (PDF).
T - Температура воздуха - температура, измеренная на высоте 2 м над землей.
Td - Температура точки росы - температура, при понижении до которой содержащийся в воздухе водяной пар достигнет насыщения.
f - Относительная влажность воздуха - влажноcть воздуха, измеренная на высоте 2 м над землей.
Te - Эффективная температура - температура, которую ощущает одетый по сезону человек в тени. Характеристика душности погоды. При расчете учитывается влияние влажности воздуха и скорости ветра на теплоощущения человека.
Tes - Эффективная температура на солнце - температура, которую ощущает человек, с поправкой на солнечный нагрев. Характеристика знойности погоды. Зависит от высоты солнца над горизонтом, облачности и скорости ветра. Ночью, в пасмурную погоду, а также при ветре 12 м/с и более поправка равна нулю.
P - Атмосферное давление - приведенное к уровню моря атмосферное давление.
Po - Атмосферное давление - измеренное на уровне метеостанции атмосферное давление.
Tmin - Минимальная температура - минимум температуры воздуха на высоте 2 м над землей.
Tmax - Максимальная температура - максимум температуры воздуха на высоте 2 м над землей.
R - Количество осадков - Количество выпавших осадков за период времени, мм. При наведении курсора мыши на число - период времени, за который выпало указанное количество осадков.
R24 - Количество осадков - Количество выпавших осадков за 24 часа, мм.
S - Снежный покров - Высота снежного покрова, см. При наведении курсора мыши на число - состояние снежного покрова и степень покрытия местности в баллах.